www.pogodaiklimat.ru

Погода и климат >> Архив погоды >> Россия >> Якутия >> Усть-Нера


ПОГОДА в Усть-Нере

  • Прогноз погоды в Усть-Нере
  • Монитор погоды в Усть-Нере
  • Климат города

АРХИВ ПОГОДЫ в Усть-Нере

Время (UTC), дата Ветер
(напр.,м/с)
 
Видим.   Явления Облачность Т
(С)
Тd
(С)
f
(%)
Тe
(С)
Тes
(С)
Комфортность P
(гПа)
Po
(гПа)
Тmin
(С)
Tmax
(С)
R
(мм)
R24
(мм)
S
(см)
00 20.05 СВ 4 50 км 1/0
[Ci fib]
+11.0 -1.1 43 +9 +15 1009.9 949.1
03 20.05 СВ 3 50 км 10/0
[Ci sp]
+14.4 -4.4 27 +14 +22 1005.6 945.7
06 20.05 В 5 50 км 10/4 1500 м
[Sc Cs]
+13.8 -2.6 32 +12 +14 1003.2 943.4
09 20.05 З 3
{11}
20 км слабый ливневой дождь 10/8 1410 м
[Cb cap As op]
+8.4 +2.7 67 +6 +6 1005.0 944.1 +15.5 0.0
12 20.05 З 4
{11}
20 км слабый ливневой дождь 10/10 1350 м
[Cb cap]
+6.1 +1.6 73 +2 +2 1006.4 944.8
15 20.05 ЮЗ 4 20 км слабый ливневой дождь 10/10 1320 м
[Cb cap]
+3.2 +1.9 91 -2 -2 1008.1 945.8
18 20.05 З 5 50 км {ливн. осадки} 10/6 1320 м
[Cb cap Ac und]
+3.4 +1.3 86 -2 -2 1008.5 946.2
21 20.05 З 7
{12}
20 км слабый ливневой дождь 9/6 1410 м
[Cb cap Ac trans]
+6.2 0.0 64 +1 +2 1008.2 946.5 +2.7 0.5
00 21.05 ЮЗ 6 50 км {ливн. осадки} 10/8 1410 м
[Cb cap Ac und]
+7.1 -0.7 58 +3 +3 1007.5 946.1
03 21.05 З 8
{13}
50 км 9/8 1470 м
[Cb cap Ac trans]
+9.3 -3.5 40 +6 +6 1006.0 945.1
06 21.05 З 7
{13}
50 км 9/5 1500 м
[Cb cap Ac trans]
+9.7 -4.8 36 +7 +7 1005.8 944.9
09 21.05 З 5
{12}
50 км 9/5 1500 м
[Sc Ac trans]
+8.7 -4.9 38 +6 +6 1005.8 944.7 +11.3 0.1
12 21.05 З 5
{10}
50 км 8/4 1500 м
[Sc Ac trans]
+5.4 -4.2 50 +2 +2 1006.9 945.1
15 21.05 З 3 20 км 4/4 1500 м
[Sc]
+2.2 -4.5 61 -2 -2 1007.7 945.1
18 21.05 З 5 50 км 6/6 1500 м
[Sc]
+1.2 -4.4 66 -4 -4 1008.1 945.3
21 21.05 З 4 50 км 10/8 1500 м
[Sc Ac und]
+2.6 -3.3 65 -2 -2 1008.5 946.0 +0.9
00 22.05 ЮЗ 2 50 км 9/4 1500 м
[Sc Ac trans]
+5.3 -3.6 53 +3 +6 1007.6 945.8
03 22.05 СВ 2 50 км 10/5 1500 м
[Sc Ac und]
+7.4 -3.8 45 +6 +8 1007.0 945.6
06 22.05 ЮВ 1 50 км 9/5 1500 м
[Sc Ac trans]
+9.1 -5.9 34 +9 +11 1006.7 945.6
09 22.05 В 4 50 км 9/5 1500 м
[Sc Ac trans]
+8.7 -5.3 37 +6 +7 1007.3 946.1 +10.0
12 22.05 В 2 50 км 3/0
[Ac trans]
+6.2 -4.5 46 +5 +5 1009.1 947.3
15 22.05 СВ 2 20 км ясно -0.6 -5.1 72 -4 -4 1012.0 948.5
18 22.05 СВ 4 50 км ясно -0.4 -4.9 72 -6 -6 1012.6 949.2
21 22.05 В 4 50 км ясно +4.6 -3.5 56 +1 +3 1011.6 949.3 -0.9
00 23.05 СВ 4 50 км 1/1 1500 м
[Cu hum]
+10.0 -2.3 42 +8 +14 1009.4 948.4
03 23.05 СВ 2 50 км 3/3 1500 м
[Cu hum]
+13.2 -3.0 32 +13 +21 1007.7 947.5
06 23.05 ЮЗ 1 50 км 3/3 1500 м
[Cu hum]
+14.2 -4.4 27 +15 +21 1006.5 946.5
09 23.05 ЮВ 2 50 км 1/1 1500 м
[Cu hum]
+14.2 -3.5 29 +14 +16 1006.4 946.5 +14.6
12 23.05 С 1 50 км ясно +6.5 -4.1 47 +6 +6 1009.3 947.5
15 23.05 СВ 3 20 км ясно +2.3 -4.4 61 -1 -1 1011.3 948.6
18 23.05 ЮЗ 1 50 км 6/0
[Ci fib]
-2.2 -4.5 84 -4 -4 1013.4 949.5
21 23.05 СВ 3 50 км 10/0
[Ci fib]
+5.8 -1.8 58 +3 +5 1011.7 949.7 -2.3
00 24.05 СВ 3 50 км 10/0
[Ci fib]
+12.7 -1.5 37 +12 +18 1009.2 948.8
03 24.05 СВ 2 50 км 10/0
[Ci fib]
+15.9 -2.3 29 +16 +26 1006.8 947.2
06 24.05 ЮВ 2 50 км 10/0
[Cs]
+17.7 -4.1 22 +18 +24 1005.1 946.0
09 24.05 ЮВ 1 50 км 10/0
[Ci fib]
+17.5 -3.6 23 +19 +20 1004.8 945.6 +18.3
12 24.05 штиль 0 50 км 8/0
[Ci fib]
+8.7 -1.1 50 +8 +8 1007.3 946.2
15 24.05 В 1 20 км 9/0
[Ac trans Ci fib]
+5.0 -1.9 61 +4 +4 1008.5 946.5
18 24.05 штиль 0 50 км 9/0
[Ac trans Ci fib]
+1.8 -2.3 74 +1 +1 1009.9 947.2
21 24.05 штиль 0 50 км 8/0
[Ac trans Ci fib]
+8.6 -0.6 52 +8 +11 1008.3 947.2 +1.5
00 25.05 В 3 50 км 1/0
[Ac trans]
+16.0 -1.7 30 +16 +23 1005.9 946.4
03 25.05 ЮВ 4 50 км 1/0
[Ac trans]
+18.1 -1.5 26 +18 +25 1004.4 945.4
06 25.05 В 5 50 км ясно +18.7 -1.5 25 +18 +22 1003.5 944.6
09 25.05 СВ 4 50 км 1/0
[Ac trans]
+18.1 -1.1 27 +18 +19 1003.8 944.8 +19.5
12 25.05 В 4 50 км 1/0
[Ac trans]
+10.9 -5.2 32 +9 +9 1006.5 945.9
15 25.05 В 2 20 км 1/0
[Ac trans]
+7.1 -4.3 44 +6 +6 1008.2 946.6
18 25.05 СВ 4 50 км 1/0
[Ac trans]
+2.8 -4.9 57 -1 -1 1010.1 947.5
21 25.05 СВ 4 50 км 3/0
[Ac trans]
+8.1 -2.4 47 +5 +7 1008.5 947.2 +2.5
00 26.05 СВ 2 50 км 6/0
[Ac trans]
+14.5 -2.1 32 +14 +21 1005.7 945.8
03 26.05 З 2 50 км 10/5 1500 м
[Sc Ac und]
+15.6 -1.7 30 +16 +18 1003.1 943.6
06 26.05 В 7
{12}
50 км 10/5 1500 м
[Sc Ac trans Ci fib]
+16.1 +1.0 36 +15 +15 1003.1 943.8
09 26.05 В 4
{13}
50 км 9/4 1500 м
[Sc Ac trans]
+14.4 +2.2 44 +13 +14 1005.0 945.2 +16.9
12 26.05 В 5
{11}
50 км 9/5 1500 м
[Sc Ac trans]
+11.7 +2.5 53 +9 +9 1006.6 946.2
15 26.05 н/о +9.5
18 26.05 В 2 50 км 3/0
[Ac trans]
+7.4 -0.6 57 +6 +6 1008.3 946.8
21 26.05 СВ 3 50 км 3/0
[Ac trans]
+10.8 +0.3 48 +9 +12 1006.7 946.1 +6.0

 

Местоположение метеостанции Усть-Нера (Якутия, Россия): широта 64.53 долгота 143.10 высота над уровнем моря 519 м.

В архиве по умолчанию представлена погода в Усть-Нере за последнюю неделю. Архивные данные за месяц целиком и за предыдущие месяцы, начиная с января 2011 года, Вы можете получить, выбрав интересующий диапазон дат из раскрывающегося списка и нажав кнопку "Ввод!".


*Определитесь, кто Вы:
робот инопланетянин человек

Внимание! Время в таблицах - всемирное. Для получения местного времени необходимо прибавить поправку, которая в Усть-Нере равна 10 ч.

Смотрите также архив погоды в соседних городах и на ближайших метеорологических станциях:

Погода в Юртах (Якутия, Россия) (82 км)
Погода в Оймяконе (Якутия, Россия) (142 км)
Погода в Делянкире (Якутия, Россия) (144 км)
Погода в Агаякане (Якутия, Россия) (150 км)
Погода в Усть-Моме (Якутия, Россия) (214 км)
Погода в Восточной (Якутия, Россия) (224 км)
Погода в Сусумане (Магаданская область, Россия) (314 км)
Погода в Иэме (Якутия, Россия) (355 км)
Погода в Томпо (Якутия, Россия) (359 км)
Погода в Теплом Ключе (Якутия, Россия) (367 км)

Пояснения к столбцам:

Ветер - указаны скорость ветра в м/с - средняя за 10 мин, порывы в срок и между сроками (в фигурных скобках) и направление, откуда дует ветер: С - северный, СВ - северо-восточный, В - восточный, ЮВ - юго-восточный, Ю - южный, ЮЗ - юго-западный, З - западный, СЗ - северо-западный.
Видимость - горизонтальная дальность видимости в метрах или километрах. При видимости от 1 до 10 км при отсутствии осадков обычно наблюдается дымка, при ухудшении видимости до 1 км и менее - туман. В сухую погоду видимость может ухудшаться дымом, пылью или мглою.
Явления - указаны атмосферные явления, наблюдавшиеся в срок или в последний час перед сроком; фигурными скобками обозначены явления, наблюдавшиеся между сроками (за 1-3 часа до срока); квадратными скобками обозначены град или гололедные отложения с указанием их диаметра в мм.
Облачность - указаны через наклонную черту общая и нижняя облачность в баллах и высота нижней границы облаков в метрах; квадратными скобками обозначены формы облаков: Ci - перистые, Cs - перисто-слоистые, Cc - перисто-кучевые, Ac - высококучевые, As - высокослоистые, Sc - слоисто-кучевые, Ns - слоисто-дождевые, Cu - кучевые, Cb - кучево-дождевые. Подробнее классификацию облаков см. в Атласе облаков (PDF).
T - Температура воздуха - температура, измеренная на высоте 2 м над землей.
Td - Температура точки росы - температура, при понижении до которой содержащийся в воздухе водяной пар достигнет насыщения.
f - Относительная влажность воздуха - влажноcть воздуха, измеренная на высоте 2 м над землей.
Te - Эффективная температура - температура, которую ощущает одетый по сезону человек в тени. Характеристика душности погоды. При расчете учитывается влияние влажности воздуха и скорости ветра на теплоощущения человека.
Tes - Эффективная температура на солнце - температура, которую ощущает человек, с поправкой на солнечный нагрев. Характеристика знойности погоды. Зависит от высоты солнца над горизонтом, облачности и скорости ветра. Ночью, в пасмурную погоду, а также при ветре 12 м/с и более поправка равна нулю.
P - Атмосферное давление - приведенное к уровню моря атмосферное давление.
Po - Атмосферное давление - измеренное на уровне метеостанции атмосферное давление.
Tmin - Минимальная температура - минимум температуры воздуха на высоте 2 м над землей.
Tmax - Максимальная температура - максимум температуры воздуха на высоте 2 м над землей.
R - Количество осадков - Количество выпавших осадков за период времени, мм. При наведении курсора мыши на число - период времени, за который выпало указанное количество осадков.
R24 - Количество осадков - Количество выпавших осадков за 24 часа, мм.
S - Снежный покров - Высота снежного покрова, см. При наведении курсора мыши на число - состояние снежного покрова и степень покрытия местности в баллах.